This demonstration page uses our WeatherBlox Daily Observations layout. Learn more.

Left ArrowRight Arrow

Hourly Observations for May 22, 2022

Temp ( °F °C ) Dew Point ( °F °C ) Humidity (%) Winds ( mph kmh ) Pressure ( in mb ) Visibility ( mi km ) Precip ( " mm )
12:01 am 00:01 Cloudy with Light Rain 67 19.4 65 18.3 93 93 SSE 3 6 30.07 1018 10 16 0.00 0.00
12:15 am 00:15 Cloudy with Thunderstorms 66 18.9 65 18.3 96 96 NW 3 6 30.06 1018 10 16 0.00 0.00
12:30 am 00:30 Cloudy 66 18.9 65 18.3 96 96 Calm 30.06 1018 10 16 0.00 0.00
12:53 am 00:53 Mostly Clear 66 18.9 65 18.3 96 96 Calm 30.05 1018 10 16 0.01 0.25
1:53 am 01:53 Mostly Clear 66 18.9 65 18.3 96 96 ESE 5 7 30.02 1017 10 16 0.00 0.00
2:53 am 02:53 Clear 65 18.3 64 17.8 97 97 Calm 30.02 1017 10 16 0.00 0.00
3:53 am 03:53 Clear 65 18.3 64 17.8 97 97 Calm 30.02 1017 10 16 0.00 0.00
4:53 am 04:53 Clear 65 18.3 64 17.8 97 97 Calm 30.03 1017 10 16 0.00 0.00
5:53 am 05:53 Mostly Cloudy 66 18.9 65 18.3 96 96 Calm 30.05 1018 10 16 0.00 0.00
6:53 am 06:53 Mostly Cloudy 66 18.9 65 18.3 96 96 Calm 30.07 1018 10 16 0.00 0.00
7:06 am 07:06 Cloudy 66 18.9 65 18.3 96 96 Calm 30.08 1019 10 16 0.00 0.00
7:14 am 07:14 Cloudy 66 18.9 65 18.3 96 96 Calm 30.08 1019 10 16 0.00 0.00
7:53 am 07:53 Mostly Cloudy 67 19.4 65 18.3 93 93 NW 7 11 30.09 1019 10 16 0.00 0.00
8:53 am 08:53 Cloudy 66 18.9 62 16.7 87 87 WNW 13 20 30.13 1020 10 16 0.00 0.00
9:53 am 09:53 Cloudy 63 17.2 58 14.4 84 84 NW 15 24 30.16 1021 10 16 0.00 0.00
10:53 am 10:53 Cloudy 62 16.7 56 13.3 80 80 NW 10 17 30.19 1022 10 16 0.00 0.00
11:28 am 11:28 Cloudy 64 17.8 55 12.8 73 73 NW 9 15 30.19 1022 10 16 0.00 0.00
11:53 am 11:53 Cloudy 65 18.3 55 12.8 70 70 NNW 9 15 30.19 1023 10 16 0.00 0.00
12:53 pm 12:53 Cloudy 65 18.3 55 12.8 70 70 NNW 7 11 30.22 1024 10 16 0.00 0.00
1:23 pm 13:23 Cloudy 66 18.9 55 12.8 68 68 NW 10 17 30.23 1024 10 16 0.00 0.00
1:53 pm 13:53 Cloudy 64 17.8 54 12.2 70 70 N 6 9 30.23 1024 10 16 0.00 0.00
2:53 pm 14:53 Cloudy 66 18.9 54 12.2 65 65 NW 9 15 30.24 1024 10 16 0.00 0.00
3:53 pm 15:53 Mostly Sunny 69 20.6 53 11.7 57 57 WNW 9 15 30.24 1024 10 16 0.00 0.00
4:53 pm 16:53 Mostly Cloudy 67 19.4 52 11.1 59 59 NW 7 11 30.24 1024 10 16 0.00 0.00
5:53 pm 17:53 Cloudy 67 19.4 51 10.6 57 57 NW 12 19 30.24 1024 10 16 0.00 0.00
6:53 pm 18:53 Sunny 65 18.3 51 10.6 61 61 WNW 9 15 30.25 1024 10 16 0.00 0.00
7:53 pm 19:53 Mostly Sunny 64 17.8 51 10.6 63 63 N 7 11 30.24 1024 10 16 0.00 0.00
8:53 pm 20:53 Clear 62 16.7 47 8.3 58 58 Calm 30.26 1025 10 16 0.00 0.00
9:53 pm 21:53 Clear 58 14.4 52 11.1 81 81 NNW 5 7 30.29 1026 10 16 0.00 0.00
10:53 pm 22:53 Clear 59 15 47 8.3 64 64 N 9 15 30.30 1026 10 16 0.00 0.00
11:53 pm 23:53 Clear 58 14.4 42 5.6 56 56 N 7 11 30.32 1027 10 16 0.00 0.00

Powered by AerisWeather